period_start,C,m1,H,J0,J1,J2,J3,J4,J5,JA,JB,JC,JD,JJ,JK,JN,#
2013-10-06 00:00:53,0.03,0.40,0.00,22.43,25.18,27.95,5.92,29.61,1005.90,2057.79,3383.52,3238.01,3510.66,350.00,321.17,30.58,0000 0000 0000 0000 000000
2013-10-06 08:28:08,0.04,0.46,0.00,23.10,26.05,28.68,5.86,29.54,1004.83,2054.00,3351.07,3213.85,3483.97,349.42,319.24,30.58,0000 0000 0000 0000 000000
2013-10-06 08:29:08,0.04,0.46,0.00,23.10,26.05,28.60,5.94,29.25,1004.78,2054.02,3351.03,3213.69,3483.86,350.82,320.84,30.59,0000 0000 0000 0000 000000
2013-10-06 08:30:08,0.07,0.46,0.00,23.09,26.05,28.71,6.01,29.33,1004.86,2054.03,3351.00,3213.44,3483.59,349.95,319.65,30.59,0000 0000 0000 0000 000000
2013-10-06 08:31:08,0.11,0.47,0.00,23.09,26.06,28.72,5.77,29.58,1004.82,2054.01,3350.91,3213.18,3483.27,349.77,319.67,30.60,0000 0000 0000 0000 000000
2013-10-06 08:32:08,0.08,0.47,0.00,23.09,26.06,28.72,5.97,29.54,1004.87,2054.00,3350.68,3213.07,3483.11,350.27,320.72,30.60,0000 0000 0000 0000 000000
2013-10-06 08:33:09,0.07,0.47,0.00,23.10,26.06,28.74,5.81,29.33,1004.85,2054.00,3350.31,3213.02,3483.04,350.32,319.96,30.61,0000 0000 0000 0000 000000
2013-10-06 08:34:09,0.07,0.47,0.00,23.10,26.07,28.77,5.93,29.38,1004.87,2054.01,3350.12,3213.00,3483.01,350.39,320.24,30.62,0000 0000 0000 0000 000000
2013-10-06 08:35:09,0.03,0.47,0.00,23.09,26.07,28.69,5.97,29.46,1004.88,2054.00,3350.04,3212.99,3483.00,350.69,320.75,30.62,0000 0000 0000 0000 000000
2013-10-06 08:36:09,0.00,0.47,0.00,23.11,26.07,28.79,5.97,29.46,1004.88,2054.00,3350.00,3212.96,3482.98,350.41,320.48,30.63,0000 0000 0000 0000 000000
2013-10-06 08:37:10,0.01,0.47,0.00,23.10,26.07,28.79,5.81,29.46,1004.90,2054.00,3349.99,3212.97,3482.98,349.64,319.79,30.63,0000 0000 0000 0000 000000
2013-10-06 08:38:10,0.00,0.47,0.00,23.10,26.07,28.75,5.85,29.58,1004.89,2054.00,3349.99,3212.93,3482.97,349.61,319.77,30.64,0000 0000 0000 0000 000000
2013-10-06 08:39:10,0.01,0.47,0.00,23.10,26.07,28.66,6.08,29.50,1004.89,2054.00,3349.92,3212.78,3482.80,350.97,321.01,30.65,0000 0000 0000 0000 000000
2013-10-06 08:40:10,0.08,0.47,0.00,23.10,26.07,28.76,5.94,29.42,1004.88,2054.00,3349.63,3212.45,3482.39,351.13,321.15,30.65,0000 0000 0000 0000 000000
2013-10-06 08:41:11,0.16,0.47,0.00,23.10,26.07,28.70,5.92,29.63,1004.88,2054.00,3349.28,3212.22,3482.16,350.47,320.46,30.66,0000 0000 0000 0000 000000
2013-10-06 08:42:11,0.12,0.47,0.00,23.11,26.07,28.75,5.88,29.79,1004.88,2054.00,3349.10,3212.10,3482.06,349.91,320.03,30.66,0000 0000 0000 0000 000000
2013-10-06 08:43:11,0.05,0.47,0.00,23.12,26.07,28.73,5.92,29.79,1004.88,2054.00,3349.03,3212.03,3482.02,349.01,319.27,30.67,0000 0000 0000 0000 000000
2013-10-06 08:44:11,0.02,0.47,0.00,23.12,26.07,28.70,5.97,29.71,1004.89,2054.00,3349.01,3212.01,3482.00,350.69,320.38,30.68,0000 0000 0000 0000 000000
2013-10-06 08:45:11,0.00,0.47,0.00,23.11,26.07,28.65,5.99,29.50,1004.84,2054.00,3349.00,3212.00,3481.99,349.87,319.91,30.68,0000 0000 0000 0000 000000
2013-10-06 08:46:12,0.00,0.47,0.00,23.11,26.07,28.59,5.81,29.58,1004.86,2054.00,3349.00,3212.00,3481.99,348.39,319.08,30.69,0000 0000 0000 0000 000000
2013-10-06 08:47:12,0.00,0.47,0.00,23.12,26.07,28.55,5.98,29.46,1004.87,2054.01,3348.99,3212.00,3481.97,350.41,320.47,30.69,0000 0000 0000 0000 000000
2013-10-06 08:48:12,0.00,0.47,0.00,23.11,26.07,28.58,5.76,29.58,1004.88,2054.00,3348.89,3211.97,3481.97,349.56,319.71,30.70,0000 0000 0000 0000 000000
2013-10-06 08:49:12,0.01,0.47,0.00,23.10,26.07,28.64,5.87,29.38,1004.89,2054.00,3348.65,3211.97,3481.90,348.95,319.16,30.70,0000 0000 0000 0000 000000
2013-10-06 08:50:12,0.03,0.47,0.00,23.11,26.07,28.73,5.92,29.58,1004.87,2054.00,3348.34,3211.94,3481.73,349.98,320.09,30.71,0000 0000 0000 0000 000000
2013-10-06 08:51:13,0.07,0.47,0.00,23.11,26.07,28.74,6.11,29.88,1004.87,2054.00,3348.18,3211.91,3481.55,350.86,320.89,30.72,0000 0000 0000 0000 000000
2013-10-06 08:52:13,0.05,0.47,0.00,23.11,26.07,28.72,5.79,29.63,1004.89,2054.01,3348.08,3211.80,3481.31,349.77,319.90,30.72,0000 0000 0000 0000 000000
2013-10-06 08:53:13,0.07,0.47,0.00,23.11,26.07,28.78,5.80,29.50,1004.87,2054.00,3348.04,3211.68,3481.17,348.31,318.56,30.73,0000 0000 0000 0000 000000
2013-10-06 08:54:13,0.05,0.47,0.00,23.12,26.08,28.74,5.85,29.54,1004.85,2054.00,3348.02,3211.42,3481.08,349.68,319.79,30.73,0000 0000 0000 0000 000000
2013-10-06 08:55:13,0.06,0.47,0.00,23.11,26.08,28.70,5.83,29.50,1004.86,2054.00,3348.00,3211.22,3481.05,348.98,319.82,30.74,0000 0000 0000 0000 000000
2013-10-06 08:56:13,0.04,0.47,0.00,23.12,26.09,28.66,5.91,29.63,1004.81,2054.00,3348.00,3211.09,3481.02,350.18,320.24,30.75,0000 0000 0000 0000 000000
2013-10-06 08:57:14,0.03,0.47,0.00,23.11,26.09,28.72,5.92,29.63,1004.80,2054.00,3347.96,3211.04,3481.00,349.82,319.84,30.75,0000 0000 0000 0000 000000
2013-10-06 08:58:14,0.01,0.47,0.00,23.11,26.09,28.76,5.81,29.46,1004.80,2054.00,3347.80,3211.01,3481.00,348.82,319.01,30.76,0000 0000 0000 0000 000000
2013-10-06 08:59:14,0.02,0.47,0.00,23.10,26.09,28.75,5.86,29.38,1004.78,2054.00,3347.39,3211.00,3480.97,350.39,320.44,30.76,0000 0000 0000 0000 000000
2013-10-06 09:00:14,0.06,0.47,0.00,23.11,26.09,28.70,5.93,29.38,1004.79,2054.00,3347.17,3211.00,3480.94,350.54,320.65,30.77,0000 0000 0000 0000 000000
2013-10-06 09:01:15,0.03,0.47,0.00,23.12,26.10,28.66,5.83,29.29,1004.79,2054.00,3347.07,3210.99,3480.81,349.95,320.03,30.77,0000 0000 0000 0000 000000
2013-10-06 09:02:15,0.03,0.47,0.00,23.12,26.10,28.67,5.88,29.46,1004.72,2054.00,3347.03,3210.97,3480.53,350.35,320.36,30.78,0000 0000 0000 0000 000000
2013-10-06 09:03:15,0.04,0.47,0.00,23.12,26.10,28.77,5.85,29.58,1004.73,2054.00,3347.00,3210.97,3480.29,348.30,318.50,30.79,0000 0000 0000 0000 000000
2013-10-06 09:04:15,0.03,0.47,0.00,23.11,26.10,28.71,5.88,29.54,1004.81,2054.00,3346.99,3210.86,3480.15,350.80,320.85,30.79,0000 0000 0000 0000 000000
2013-10-06 09:05:16,0.05,0.47,0.00,23.11,26.10,28.69,5.92,29.63,1004.72,2054.00,3346.92,3210.58,3480.06,349.88,319.95,30.80,0000 0000 0000 0000 000000
2013-10-06 09:06:16,0.07,0.47,0.00,23.12,26.10,28.75,5.87,29.38,1004.62,2054.00,3346.87,3210.36,3480.02,350.11,319.76,30.80,0000 0000 0000 0000 000000
2013-10-06 09:07:16,0.07,0.48,0.00,23.12,26.10,28.71,5.95,29.58,1004.58,2054.00,3346.67,3210.17,3480.00,349.34,319.40,30.81,0000 0000 0000 0000 000000
2013-10-06 09:08:16,0.06,0.48,0.00,23.12,26.10,28.74,5.86,29.46,1004.60,2054.00,3346.35,3210.09,3480.00,350.08,320.08,30.82,0000 0000 0000 0000 000000
2013-10-06 09:09:17,0.06,0.48,0.00,23.11,26.10,28.68,6.03,29.71,1004.59,2054.00,3346.18,3210.04,3480.00,350.04,319.89,30.82,0000 0000 0000 0000 000000
2013-10-06 09:10:17,0.02,0.48,0.00,23.12,26.10,28.68,5.99,29.50,1004.57,2054.00,3346.08,3210.02,3480.00,350.12,320.44,30.83,0000 0000 0000 0000 000000
2013-10-06 09:11:17,0.01,0.48,0.00,23.12,26.10,28.68,5.88,29.63,1004.47,2054.00,3346.03,3210.00,3480.00,349.61,318.99,30.83,0000 0000 0000 0000 000000
2013-10-06 09:12:17,0.01,0.48,0.00,23.12,26.10,28.70,5.98,29.63,1004.41,2054.00,3346.01,3209.99,3479.94,350.35,320.15,30.84,0000 0000 0000 0000 000000
2013-10-06 09:13:18,0.01,0.48,0.00,23.12,26.10,28.81,5.86,29.46,1004.42,2054.00,3345.99,3209.98,3479.77,350.93,321.10,30.84,0000 0000 0000 0000 000000
2013-10-06 09:14:18,0.02,0.48,0.00,23.12,26.10,28.85,5.97,29.50,1004.43,2054.00,3345.91,3209.98,3479.53,349.72,319.70,30.85,0000 0000 0000 0000 000000
2013-10-06 09:15:18,0.04,0.48,0.00,23.11,26.10,28.72,5.91,29.75,1004.42,2054.00,3345.68,3209.95,3479.25,349.98,319.99,30.86,0000 0000 0000 0000 000000
2013-10-06 09:16:18,0.08,0.48,0.00,23.10,26.10,28.79,5.96,29.75,1004.42,2054.00,3345.28,3209.78,3479.11,349.42,319.46,30.86,0000 0000 0000 0000 000000
2013-10-06 09:17:18,0.09,0.48,0.00,23.10,26.10,28.73,5.87,29.63,1004.41,2054.00,3345.10,3209.54,3479.05,349.75,319.61,30.87,0000 0000 0000 0000 000000
2013-10-06 09:18:19,0.08,0.48,0.00,23.10,26.10,28.76,5.88,29.38,1004.41,2054.00,3345.03,3209.27,3479.02,350.12,320.55,30.87,0000 0000 0000 0000 000000
2013-10-06 09:19:19,0.07,0.48,0.00,23.10,26.10,28.77,5.87,29.67,1004.41,2054.00,3345.01,3209.11,3478.98,349.27,319.31,30.88,0000 0000 0000 0000 000000
2013-10-06 09:20:19,0.03,0.48,0.00,23.10,26.10,28.74,5.80,29.79,1004.41,2054.00,3345.00,3209.04,3478.94,350.09,320.05,30.89,0000 0000 0000 0000 000000
2013-10-06 09:21:19,0.01,0.48,0.00,23.10,26.10,28.80,5.83,29.71,1004.43,2054.00,3344.98,3209.01,3478.93,350.16,320.12,30.89,0000 0000 0000 0000 000000
2013-10-06 09:22:20,0.01,0.48,0.00,23.10,26.10,28.75,5.92,29.79,1004.42,2054.00,3344.75,3209.00,3478.74,350.74,320.66,30.90,0000 0000 0000 0000 000000
2013-10-06 09:23:20,0.06,0.48,0.00,23.09,26.10,28.68,5.78,29.79,1004.41,2054.00,3344.35,3208.99,3478.39,349.28,319.31,30.90,0000 0000 0000 0000 000000
2013-10-06 09:24:20,0.09,0.48,0.00,23.10,26.10,28.69,5.98,29.71,1004.41,2054.00,3344.14,3208.97,3478.18,350.66,320.57,30.91,0000 0000 0000 0000 000000
2013-10-06 09:25:20,0.05,0.48,0.00,23.10,26.11,28.72,5.88,29.58,1004.42,2054.00,3344.05,3208.96,3478.07,350.34,320.28,30.92,0000 0000 0000 0000 000000
2013-10-06 09:26:21,0.03,0.48,0.00,23.10,26.11,28.69,5.85,29.42,1004.41,2054.00,3344.02,3208.77,3478.02,349.89,320.04,30.92,0000 0000 0000 0000 000000
2013-10-06 09:27:21,0.05,0.48,0.00,23.09,26.11,28.75,5.78,29.67,1004.41,2053.99,3343.99,3208.38,3478.00,349.73,320.05,30.93,0000 0000 0000 0000 000000
2013-10-06 09:28:21,0.08,0.48,0.00,23.09,26.11,28.72,6.02,29.71,1004.41,2053.99,3343.89,3208.18,3477.96,350.03,320.00,30.93,0000 0000 0000 0000 000000
2013-10-06 09:29:21,0.07,0.48,0.00,23.09,26.11,28.79,5.87,29.75,1004.41,2053.99,3343.50,3208.08,3477.96,350.20,320.15,30.94,0000 0000 0000 0000 000000
2013-10-06 09:30:22,0.06,0.48,0.00,23.09,26.12,28.73,5.88,29.75,1004.42,2053.99,3343.19,3208.03,3477.80,349.91,319.70,30.94,0000 0000 0000 0000 000000
2013-10-06 09:31:22,0.07,0.48,0.00,23.09,26.12,28.66,5.79,29.67,1004.46,2053.99,3343.08,3208.01,3477.41,349.11,319.18,30.95,0000 0000 0000 0000 000000
2013-10-06 09:32:22,0.06,0.48,0.00,23.09,26.12,28.63,5.87,29.58,1004.46,2053.99,3343.03,3208.00,3477.21,349.80,319.57,30.96,0000 0000 0000 0000 000000
2013-10-06 09:33:22,0.03,0.48,0.00,23.09,26.12,28.74,5.93,29.71,1004.45,2053.99,3343.02,3208.00,3477.09,350.49,320.44,30.96,0000 0000 0000 0000 000000
2013-10-06 09:34:22,0.01,0.48,0.00,23.09,26.12,28.63,5.77,29.38,1004.47,2053.99,3343.00,3208.00,3477.03,349.63,319.65,30.97,0000 0000 0000 0000 000000
2013-10-06 09:35:23,0.00,0.48,0.00,23.09,26.12,28.64,6.04,29.50,1004.47,2053.99,3342.97,3207.99,3477.01,350.08,320.07,30.97,0000 0000 0000 0000 000000
2013-10-06 09:36:23,0.01,0.48,0.00,23.09,26.12,28.67,5.99,29.83,1004.43,2053.99,3342.91,3207.95,3477.00,350.22,320.19,30.98,0000 0000 0000 0000 000000
2013-10-06 09:37:23,0.02,0.48,0.00,23.09,26.12,28.72,5.81,29.67,1004.41,2053.99,3342.73,3207.84,3477.00,349.40,319.86,30.99,0000 0000 0000 0000 000000
2013-10-06 09:38:24,0.06,0.48,0.00,23.09,26.12,28.68,5.98,29.46,1004.43,2053.99,3342.39,3207.52,3476.98,349.34,319.49,30.99,0000 0000 0000 0000 000000
2013-10-06 09:39:24,0.11,0.49,0.00,23.08,26.12,28.67,6.01,29.63,1004.41,2053.99,3342.15,3207.22,3476.95,349.66,319.67,31.00,0000 0000 0000 0000 000000
2013-10-06 09:40:24,0.10,0.49,0.00,23.09,26.12,28.76,5.82,29.63,1004.41,2053.98,3342.05,3207.10,3476.65,349.52,319.54,31.00,0000 0000 0000 0000 000000
2013-10-06 09:41:25,0.07,0.49,0.00,23.09,26.12,28.73,5.75,29.71,1004.41,2053.98,3342.02,3207.04,3476.33,349.53,319.56,31.01,0000 0000 0000 0000 000000
2013-10-06 09:42:25,0.05,0.49,0.00,23.08,26.12,28.81,5.83,29.83,1004.41,2053.98,3341.96,3207.01,3476.14,350.46,320.41,31.01,0000 0000 0000 0000 000000
2013-10-06 09:43:25,0.03,0.49,0.00,23.07,26.12,28.84,5.88,29.67,1004.41,2053.99,3341.89,3207.00,3476.08,350.44,320.39,31.02,0000 0000 0000 0000 000000
2013-10-06 09:44:25,0.04,0.49,0.00,23.07,26.12,28.70,5.96,29.58,1004.41,2053.98,3341.50,3206.98,3476.03,350.62,320.57,31.03,0000 0000 0000 0000 000000
2013-10-06 09:45:26,0.05,0.49,0.00,23.07,26.12,28.69,5.99,29.46,1004.42,2053.98,3341.21,3206.97,3476.01,350.33,320.30,31.03,0000 0000 0000 0000 000000
2013-10-06 09:46:26,0.03,0.49,0.00,23.07,26.12,28.72,5.88,29.71,1004.42,2053.98,3341.08,3206.95,3476.00,349.19,319.44,31.04,0000 0000 0000 0000 000000
2013-10-06 09:47:26,0.03,0.49,0.00,23.08,26.12,28.75,5.89,29.75,1004.42,2053.99,3341.03,3206.77,3476.00,349.56,319.59,31.04,0000 0000 0000 0000 000000
2013-10-06 09:48:26,0.05,0.49,0.00,23.07,26.12,28.76,5.91,29.46,1004.41,2053.99,3341.01,3206.57,3475.98,350.51,320.46,31.05,0000 0000 0000 0000 000000
2013-10-06 09:49:27,0.04,0.49,0.00,23.07,26.12,28.83,5.73,29.83,1004.41,2053.99,3341.00,3206.44,3475.96,349.97,319.89,31.06,0000 0000 0000 0000 000000
2013-10-06 09:50:27,0.03,0.49,0.00,23.07,26.12,28.76,5.88,29.54,1004.41,2053.98,3340.99,3206.22,3475.85,350.00,320.21,31.06,0000 0000 0000 0000 000000
2013-10-06 09:51:27,0.07,0.49,0.00,23.07,26.12,28.77,5.91,29.63,1004.41,2053.98,3340.93,3206.10,3475.57,349.95,319.75,31.07,0000 0000 0000 0000 000000
2013-10-06 09:52:27,0.07,0.49,0.00,23.07,26.12,28.78,5.87,29.54,1004.41,2053.99,3340.87,3206.03,3475.27,349.35,319.26,31.07,0000 0000 0000 0000 000000
2013-10-06 09:53:27,0.05,0.49,0.00,23.06,26.12,28.77,5.92,29.75,1004.42,2053.98,3340.59,3206.01,3475.12,349.40,319.64,31.08,0000 0000 0000 0000 000000
2013-10-06 09:54:28,0.06,0.49,0.00,23.06,26.12,28.68,5.88,29.46,1004.41,2053.99,3340.30,3206.00,3475.07,350.10,320.10,31.09,0000 0000 0000 0000 000000
2013-10-06 09:55:28,0.05,0.49,0.00,23.06,26.12,28.70,6.06,29.71,1004.41,2053.99,3340.13,3206.00,3475.03,349.88,319.90,31.09,0000 0000 0000 0000 000000
2013-10-06 09:56:28,0.02,0.49,0.00,23.06,26.12,28.78,5.88,29.67,1004.42,2053.99,3340.07,3206.00,3475.01,349.97,320.14,31.10,0000 0000 0000 0000 000000
2013-10-06 09:57:28,0.01,0.49,0.00,23.05,26.12,28.77,6.02,29.67,1004.41,2053.99,3340.02,3205.99,3475.00,350.29,320.06,31.10,0000 0000 0000 0000 000000
2013-10-06 09:58:29,0.01,0.49,0.00,23.05,26.12,28.80,5.98,29.63,1004.41,2053.99,3340.00,3205.99,3475.00,350.88,320.99,31.11,0000 0000 0000 0000 000000
2013-10-06 09:59:29,0.00,0.49,0.00,23.05,26.12,28.76,5.85,29.67,1004.42,2053.99,3340.00,3205.96,3475.00,349.50,319.57,31.11,0000 0000 0000 0000 000000
2013-10-06 10:00:29,0.01,0.49,0.00,23.05,26.12,28.84,5.98,29.79,1004.41,2053.99,3339.98,3205.94,3474.99,349.49,319.64,31.12,0000 0000 0000 0000 000000
2013-10-06 10:01:30,0.02,0.49,0.00,23.05,26.12,28.81,5.96,29.46,1004.41,2053.99,3339.85,3205.71,3474.92,351.67,321.55,31.13,0000 0000 0000 0000 000000
2013-10-06 10:02:30,0.06,0.49,0.00,23.04,26.12,28.72,5.95,29.58,1004.42,2053.99,3339.53,3205.47,3474.83,350.48,320.47,31.13,0000 0000 0000 0000 000000
2013-10-06 10:03:30,0.12,0.49,0.00,23.03,26.12,28.68,5.81,29.58,1004.42,2053.98,3339.24,3205.22,3474.57,348.19,318.39,31.14,0000 0000 0000 0000 000000
2013-10-06 10:04:30,0.11,0.49,0.00,23.03,26.12,28.79,5.86,29.50,1004.42,2053.99,3339.09,3205.10,3474.29,350.06,320.10,31.14,0000 0000 0000 0000 000000
2013-10-06 10:05:31,0.07,0.49,0.00,23.03,26.12,28.81,5.82,29.71,1004.43,2053.99,3339.03,3205.03,3474.11,349.00,319.11,31.15,0000 0000 0000 0000 000000
2013-10-06 10:06:31,0.04,0.49,0.00,23.03,26.12,28.82,5.99,29.54,1004.43,2053.99,3339.00,3205.01,3474.04,350.98,320.80,31.16,0000 0000 0000 0000 000000
2013-10-06 10:07:31,0.01,0.49,0.00,23.03,26.12,28.79,5.93,29.63,1004.43,2053.99,3338.97,3205.00,3474.01,350.26,320.52,31.16,0000 0000 0000 0000 000000
2013-10-06 10:08:31,0.01,0.49,0.00,23.02,26.12,28.74,5.84,29.42,1004.45,2053.98,3338.87,3204.97,3474.00,349.58,319.68,31.17,0000 0000 0000 0000 000000
2013-10-06 10:09:32,0.02,0.49,0.00,23.02,26.12,28.70,5.83,29.58,1004.46,2053.97,3338.54,3204.96,3474.00,349.36,319.37,31.17,0000 0000 0000 0000 000000
2013-10-06 10:10:32,0.04,0.49,0.00,23.02,26.12,28.72,6.02,29.71,1004.45,2053.99,3338.26,3204.95,3473.98,350.14,319.89,31.18,0000 0000 0000 0000 000000
2013-10-06 10:11:32,0.05,0.49,0.00,23.02,26.12,28.73,5.78,29.50,1004.44,2053.99,3338.11,3204.88,3473.87,350.05,320.44,31.18,0000 0000 0000 0000 000000
2013-10-06 10:12:32,0.07,0.49,0.00,23.02,26.12,28.66,5.91,29.67,1004.44,2053.98,3338.04,3204.52,3473.54,350.07,320.13,31.19,0000 0000 0000 0000 000000
2013-10-06 10:13:32,0.10,0.49,0.00,23.02,26.12,28.63,5.90,29.42,1004.43,2053.99,3338.00,3204.26,3473.27,350.43,320.45,31.20,0000 0000 0000 0000 000000
2013-10-06 10:14:33,0.10,0.50,0.00,23.02,26.12,28.65,5.80,29.50,1004.45,2053.99,3337.99,3204.11,3473.13,349.69,319.78,31.20,0000 0000 0000 0000 000000
2013-10-06 10:15:33,0.06,0.50,0.00,23.02,26.12,28.70,5.79,29.46,1004.43,2053.99,3337.96,3204.05,3473.06,349.88,319.95,31.21,0000 0000 0000 0000 000000
2013-10-06 10:16:33,0.02,0.50,0.00,23.02,26.12,28.80,5.93,29.50,1004.42,2053.99,3337.90,3204.01,3473.02,349.63,319.54,31.21,0000 0000 0000 0000 000000
2013-10-06 10:17:34,0.02,0.50,0.00,23.02,26.12,28.72,5.92,29.46,1004.42,2053.99,3337.62,3204.00,3473.00,350.21,320.08,31.22,0000 0000 0000 0000 000000
2013-10-06 10:18:34,0.04,0.50,0.00,23.01,26.12,28.70,5.92,29.75,1004.43,2053.99,3337.28,3204.00,3473.00,350.87,320.87,31.23,0000 0000 0000 0000 000000
2013-10-06 10:19:34,0.04,0.50,0.00,23.01,26.12,28.79,6.02,29.83,1004.43,2053.99,3337.11,3203.99,3473.00,349.69,319.79,31.23,0000 0000 0000 0000 000000
2013-10-06 10:20:34,0.02,0.50,0.00,23.01,26.12,28.70,5.83,29.50,1004.41,2053.99,3337.04,3203.98,3472.97,350.17,320.23,31.24,0000 0000 0000 0000 000000
2013-10-06 10:21:35,0.02,0.50,0.00,23.01,26.12,28.68,5.99,29.67,1004.41,2053.99,3337.00,3203.94,3472.75,350.23,320.28,31.24,0000 0000 0000 0000 000000
2013-10-06 10:22:35,0.05,0.50,0.00,23.02,26.12,28.74,5.98,29.50,1004.42,2053.99,3336.96,3203.79,3472.44,349.82,319.90,31.25,0000 0000 0000 0000 000000
2013-10-06 10:23:35,0.08,0.50,0.00,23.01,26.12,28.82,5.87,29.50,1004.41,2053.99,3336.89,3203.53,3472.18,349.39,319.51,31.25,0000 0000 0000 0000 000000
2013-10-06 10:24:35,0.07,0.50,0.00,23.00,26.12,28.87,5.98,29.75,1004.41,2053.99,3336.74,3203.41,3472.10,350.69,320.71,31.26,0000 0000 0000 0000 000000
2013-10-06 10:25:35,0.08,0.50,0.00,23.00,26.12,28.74,5.91,29.71,1004.41,2053.99,3336.35,3203.21,3472.04,350.27,320.33,31.27,0000 0000 0000 0000 000000
2013-10-06 10:26:36,0.08,0.50,0.00,23.00,26.12,28.77,5.85,29.58,1004.41,2053.99,3336.14,3203.08,3472.02,349.75,319.63,31.27,0000 0000 0000 0000 000000
2013-10-06 10:27:36,0.05,0.50,0.00,23.00,26.12,28.72,5.92,29.75,1004.41,2053.99,3336.05,3203.03,3472.01,350.80,320.81,31.28,0000 0000 0000 0000 000000
2013-10-06 10:28:36,0.02,0.50,0.00,22.99,26.12,28.72,5.83,29.50,1004.41,2053.99,3336.02,3203.01,3472.00,349.93,320.41,31.28,0000 0000 0000 0000 000000
2013-10-06 10:29:36,0.00,0.50,0.00,22.99,26.12,28.71,5.88,29.46,1004.41,2053.99,3336.00,3203.00,3472.00,349.70,319.81,31.29,0000 0000 0000 0000 000000
2013-10-06 10:30:36,0.00,0.50,0.00,22.99,26.12,28.75,5.88,29.50,1004.41,2053.99,3335.95,3203.00,3471.97,349.05,319.21,31.30,0000 0000 0000 0000 000000
2013-10-06 10:31:37,0.01,0.50,0.00,22.99,26.12,28.71,6.05,29.79,1004.41,2053.99,3335.69,3203.00,3471.85,349.80,320.23,31.30,0000 0000 0000 0000 000000
2013-10-06 10:32:37,0.06,0.50,0.00,22.99,26.12,28.76,5.98,29.63,1004.41,2053.99,3335.34,3202.99,3471.57,350.17,320.00,31.31,0000 0000 0000 0000 000000
2013-10-06 10:33:37,0.08,0.50,0.00,22.99,26.11,28.70,5.93,29.71,1004.41,2053.98,3335.13,3202.84,3471.29,350.60,320.56,31.31,0000 0000 0000 0000 000000
2013-10-06 10:34:37,0.10,0.50,0.00,22.99,26.12,28.65,5.93,29.46,1004.42,2053.99,3335.04,3202.50,3471.11,350.24,320.45,31.32,0000 0000 0000 0000 000000
2013-10-06 10:35:38,0.10,0.50,0.00,22.99,26.11,28.73,6.04,29.79,1004.41,2053.99,3335.01,3202.25,3471.04,350.05,320.13,31.33,0000 0000 0000 0000 000000
2013-10-06 10:36:38,0.06,0.50,0.00,22.99,26.11,28.69,5.92,29.79,1004.43,2053.99,3334.99,3202.10,3471.01,349.76,319.87,31.33,0000 0000 0000 0000 000000
2013-10-06 10:37:38,0.03,0.50,0.00,22.99,26.11,28.60,6.02,29.67,1004.42,2053.99,3334.93,3202.03,3471.00,349.75,319.74,31.34,0000 0000 0000 0000 000000
2013-10-06 10:38:38,0.02,0.50,0.00,22.98,26.10,28.64,6.01,29.42,1004.46,2053.99,3334.67,3202.01,3470.99,352.07,322.00,31.34,0000 0000 0000 0000 000000
2013-10-06 10:39:38,0.05,0.50,0.00,22.98,26.10,28.66,5.95,29.50,1004.45,2053.99,3334.30,3202.00,3470.93,349.92,320.39,31.35,0000 0000 0000 0000 000000
2013-10-06 10:40:38,0.05,0.50,0.00,22.98,26.10,28.67,5.92,29.42,1004.45,2053.99,3334.12,3202.00,3470.66,350.12,320.08,31.35,0000 0000 0000 0000 000000
2013-10-06 10:41:39,0.05,0.50,0.00,22.98,26.10,28.67,5.93,29.75,1004.43,2053.99,3334.03,3201.99,3470.40,349.70,320.07,31.36,0000 0000 0000 0000 000000
2013-10-06 10:42:39,0.04,0.50,0.00,22.98,26.10,28.71,5.94,29.79,1004.45,2053.99,3334.00,3201.96,3470.27,350.25,320.34,31.37,0000 0000 0000 0000 000000
2013-10-06 10:43:39,0.04,0.50,0.00,22.98,26.10,28.69,5.88,29.71,1004.43,2053.99,3333.99,3201.88,3470.11,350.12,320.04,31.37,0000 0000 0000 0000 000000
2013-10-06 10:44:39,0.04,0.50,0.00,22.98,26.10,28.72,6.00,29.71,1004.46,2053.99,3333.89,3201.72,3470.04,350.31,320.40,31.38,0000 0000 0000 0000 000000
2013-10-06 10:45:40,0.05,0.50,0.00,22.98,26.10,28.74,5.99,29.42,1004.47,2053.99,3333.62,3201.47,3470.02,350.58,320.96,31.38,0000 0000 0000 0000 000000
2013-10-06 10:46:40,0.09,0.51,0.00,22.97,26.10,28.66,5.98,29.71,1004.44,2053.99,3333.29,3201.24,3469.99,350.00,320.12,31.39,0000 0000 0000 0000 000000
2013-10-06 10:47:40,0.10,0.51,0.00,22.97,26.10,28.65,5.88,29.67,1004.46,2053.99,3333.11,3201.09,3469.98,349.61,319.76,31.40,0000 0000 0000 0000 000000
2013-10-06 10:48:40,0.05,0.51,0.00,22.97,26.10,28.69,5.94,29.33,1004.49,2053.99,3333.04,3201.03,3469.98,350.34,320.44,31.40,0000 0000 0000 0000 000000
2013-10-06 10:49:41,0.02,0.51,0.00,22.97,26.10,28.65,5.89,29.58,1004.53,2053.99,3333.00,3201.01,3469.96,349.52,319.57,31.41,0000 0000 0000 0000 000000
2013-10-06 10:50:41,0.02,0.51,0.00,22.97,26.10,28.69,6.02,29.58,1004.55,2053.99,3332.98,3201.00,3469.75,349.50,319.70,31.41,0000 0000 0000 0000 000000
2013-10-06 10:51:41,0.03,0.51,0.00,22.97,26.10,28.67,5.77,29.71,1004.59,2053.99,3332.89,3201.00,3469.46,349.44,319.65,31.42,0000 0000 0000 0000 000000
2013-10-06 10:52:41,0.05,0.51,0.00,22.97,26.10,28.71,5.93,29.71,1004.64,2053.99,3332.49,3200.98,3469.22,350.12,320.28,31.42,0000 0000 0000 0000 000000
2013-10-06 10:53:41,0.07,0.51,0.00,22.97,26.10,28.71,5.84,29.63,1004.66,2053.99,3332.23,3200.98,3469.09,349.83,320.03,31.43,0000 0000 0000 0000 000000
2013-10-06 10:54:42,0.05,0.51,0.00,22.96,26.10,28.68,5.77,29.71,1004.61,2053.99,3332.08,3200.88,3469.03,349.79,319.83,31.44,0000 0000 0000 0000 000000
2013-10-06 10:55:42,0.05,0.51,0.00,22.96,26.10,28.56,5.89,29.71,1004.55,2053.99,3332.03,3200.53,3469.01,349.99,320.20,31.44,0000 0000 0000 0000 000000
2013-10-06 10:56:42,0.08,0.51,0.00,22.97,26.10,28.57,5.95,29.67,1004.61,2053.99,3331.99,3200.26,3468.99,349.79,319.99,31.45,0000 0000 0000 0000 000000
2013-10-06 10:57:42,0.06,0.51,0.00,22.96,26.10,28.72,5.94,29.58,1004.64,2053.99,3331.89,3200.09,3468.95,349.68,319.56,31.45,0000 0000 0000 0000 000000
2013-10-06 10:58:42,0.05,0.51,0.00,22.95,26.10,28.66,6.02,29.71,1004.65,2053.99,3331.61,3200.04,3468.90,350.21,320.39,31.46,0000 0000 0000 0000 000000
2013-10-06 10:59:42,0.06,0.51,0.00,22.95,26.10,28.63,5.92,29.63,1004.69,2053.99,3331.27,3200.01,3468.69,349.87,320.10,31.47,0000 0000 0000 0000 000000
2013-10-06 11:00:42,0.08,0.51,0.00,22.95,26.10,28.63,5.94,29.46,1004.65,2053.99,3331.10,3200.00,3468.32,350.12,320.31,31.47,0000 0000 0000 0000 000000
2013-10-06 11:01:42,0.06,0.51,0.00,22.96,26.10,28.63,5.81,29.50,1004.68,2053.99,3331.03,3200.00,3468.13,349.25,319.51,31.48,0000 0000 0000 0000 000000
2013-10-06 11:02:42,0.03,0.51,0.00,22.97,26.10,28.70,6.01,29.50,1004.67,2053.99,3331.01,3199.98,3468.05,350.28,320.44,31.48,0000 0000 0000 0000 000000